User: anonymous   Login
Location: *
(40.4270°N, 9.4940°E)
Time: 09:33:54
(UTC+01:00)
Language:

Okean 2 - Orbit

View from above orbital plane
View from above orbital plane
View from above satellite
View from above satellite

Ground track
Ground track

The orbit data is extracted from the following two-line orbital elements,

1 20510U 90018A   16038.21996968  .00000874  00000-0  71100-4 0  9996
2 20510  82.5167 287.4969 0011457 211.4414 266.0637 14.98342631407168
Epoch (UTC): 07 February 2016 05:16:45
Eccentricity: 0.0011457
inclination: 82.5167°
perigee height: 564 km
apogee height: 580 km
right ascension of ascending node: 287.4969°
argument of perigee: 211.4414°
revolutions per day: 14.98342631
mean anomaly at epoch: 266.0637°
orbit number at epoch: 40716

The dashed part of the orbit path shows where the satellite is in the earth's shadow,  

DLR